Location: Gajan
(43.0218°N, 1.1244°E)
Time: 16:28:05
(UTC+00:00)

Aureole 1 Rocket - Pass Details

Date: 22 April 2021
Orbit: 379 x 1372 km, 73.9° (Epoch: 12 May)

Event Time Altitude Azimuth Distance (km) Brightness Sun altitude
Exits shadow 22:17:38 61° 324° (NW) 889 3.9 -30.3°
Drops below altitude 10° 22:21:47 10° 14° (NNE) 2,083 6.3 -30.6°
Sets 22:23:47 0° 17° (NNE) 2,868 7.1 -30.8°
